EW9296 Weather Reports


Display with metric or nautical units.
time (UTC)temp
F
wind
direction
speed
MPH
gust
MPH
rain 1hr
in
rain 24hr
in
rain mn
in
humidity
%
barometer
mb
20260507050057 47 265 0.0 0.0 0.00 0.00 0.00 57 1011.1
20260507044600 47 277 0.0 0.0 0.00 0.00 0.00 55 1011.1
20260507043057 47 246 0.0 0.0 0.00 0.00 0.00 56 1011.1
20260507041552 47 246 0.0 0.0 0.00 0.00 0.00 55 1011.0
20260507040050 47 246 0.0 0.0 0.00 0.00 0.00 57 1011.1
20260507034555 48 246 0.0 0.0 0.00 0.00 0.00 56 1011.1
20260507033049 48 246 0.0 0.0 0.00 0.00 0.00 54 1011.2
20260507031548 48 246 0.0 0.0 0.00 0.00 0.00 54 1011.2
20260507030054 48 246 0.0 0.0 0.00 0.00 0.00 53 1011.3
20260507024554 49 246 0.0 0.0 0.00 0.00 0.00 54 1011.2
20260507023047 49 249 0.0 0.0 0.00 0.00 0.00 53 1011.1
20260507021545 48 249 0.0 0.0 0.00 0.00 0.00 53 1011.1
20260507020050 48 249 0.0 0.0 0.00 0.00 0.00 54 1011.1
20260507014545 49 249 0.0 0.0 0.00 0.00 0.00 54 1011.0
20260507013056 49 249 0.0 0.0 0.00 0.00 0.00 52 1010.9
20260507011544 49 250 0.0 0.0 0.00 0.00 0.00 51 1010.8
20260507010045 50 250 0.0 0.0 0.00 0.00 0.00 50 1010.7
20260507004544 50 250 0.0 0.0 0.00 0.00 0.00 49 1010.6
20260507003044 50 249 0.0 4.0 0.00 0.00 0.00 48 1010.8
20260507001544 50 270 0.0 6.0 0.00 0.00 0.00 46 1010.5
20260507000048 51 294 1.0 4.0 0.00 0.00 0.00 46 1010.5
20260506234542 51 269 0.0 5.0 0.00 0.00 0.00 47 1010.4
20260506233041 51 269 2.0 6.0 0.00 0.00 0.00 45 1010.4
20260506231543 52 269 2.0 7.0 0.00 0.00 0.00 45 1010.4
20260506230039 52 302 2.0 9.0 0.00 0.00 0.00 47 1010.3
20260506224551 52 266 0.0 4.0 0.00 0.00 0.00 47 1010.3
20260506223038 52 138 4.0 8.0 0.00 0.00 0.00 44 1010.3
20260506221538 53 267 1.0 6.0 0.00 0.00 0.00 47 1010.3
20260506220038 53 327 3.0 8.0 0.00 0.00 0.00 43 1010.3
20260506214539 53 271 3.0 8.0 0.00 0.00 0.00 44 1010.3
20260506213041 53 281 2.0 6.0 0.00 0.00 0.00 45 1010.2
20260506211536 53 300 0.0 7.0 0.00 0.00 0.00 46 1010.2
20260506210039 53 265 0.0 5.0 0.00 0.00 0.00 47 1010.1
20260506204534 53 299 2.0 8.0 0.00 0.00 0.00 46 1010.2
20260506203034 52 307 0.0 5.0 0.00 0.00 0.00 47 1010.3
20260506201532 53 270 4.0 9.0 0.00 0.00 0.00 45 1010.3
20260506200034 52 255 1.0 3.0 0.00 0.00 0.00 47 1010.4
20260506194532 51 360 0.0 4.0 0.00 0.00 0.00 51 1010.3
20260506193030 51 283 0.0 2.0 0.00 0.00 0.00 50 1010.6
20260506191534 51 297 2.0 7.0 0.00 0.00 0.00 48 1010.6
20260506190028 52 311 0.0 0.0 0.00 0.00 0.00 51 1010.6
20260506184531 52 297 0.0 5.0 0.00 0.00 0.00 51 1010.8
20260506183027 53 255 1.0 6.0 0.00 0.00 0.00 49 1010.6
20260506181525 52 271 0.0 5.0 0.00 0.00 0.00 52 1010.5
20260506180025 51 32 1.0 5.0 0.00 0.00 0.00 50 1010.7
20260506174521 50 74 1.0 6.0 0.00 0.00 0.00 51 1010.8
20260506173020 50 317 1.0 5.0 0.00 0.00 0.00 49 1011.0
20260506171523 51 17 0.0 7.0 0.00 0.00 0.00 49 1011.1
20260506170019 51 277 2.0 7.0 0.00 0.00 0.00 49 1011.2
20260506164520 50 332 0.0 6.0 0.00 0.00 0.00 49 1011.0
20260506163017 51 320 3.0 9.0 0.00 0.00 0.00 50 1011.1
20260506161515 50 276 0.0 6.0 0.00 0.00 0.00 53 1011.1
20260506160014 49 360 2.0 6.0 0.00 0.00 0.00 52 1011.3
20260506154510 49 267 0.0 6.0 0.00 0.00 0.00 59 1011.3
20260506153006 49 57 1.0 7.0 0.00 0.00 0.00 60 1011.1
20260506151505 48 278 3.0 10.0 0.00 0.00 0.00 60 1011.0
20260506150002 47 327 1.0 6.0 0.00 0.02 0.00 64 1010.9
20260506144501 46 317 0.0 7.0 0.00 0.02 0.00 67 1010.9
20260506143101 46 350 2.0 6.0 0.00 0.02 0.00 67 1010.7
20260506141604 46 308 0.0 5.0 0.00 0.02 0.00 67 1010.6
20260506140114 45 292 1.0 5.0 0.00 0.02 0.00 68 1010.4
20260506134558 46 333 0.0 5.0 0.00 0.02 0.00 68 1010.2
20260506133102 45 329 2.0 6.0 0.00 0.02 0.00 70 1010.2
20260506131551 44 11 1.0 4.0 0.00 0.02 0.00 69 1010.0
20260506130050 44 355 1.0 5.0 0.00 0.02 0.00 69 1009.9
20260506124549 44 5 0.0 4.0 0.00 0.02 0.00 68 1009.8
20260506123047 43 321 1.0 5.0 0.00 0.02 0.00 68 1009.5
20260506121546 43 307 0.0 2.0 0.00 0.02 0.00 68 1009.4
20260506120046 42 321 0.0 5.0 0.00 0.02 0.00 67 1009.1
20260506114539 42 260 0.0 0.0 0.00 0.02 0.00 70 1008.9
20260506113046 41 260 0.0 0.0 0.00 0.02 0.00 71 1008.5
20260506111536 40 261 0.0 0.0 0.00 0.02 0.00 75 1008.4
20260506110037 40 290 0.0 0.0 0.00 0.02 0.00 75 1008.3
20260506104535 40 290 0.0 0.0 0.00 0.02 0.00 77 1008.2
20260506103033 40 290 0.0 0.0 0.00 0.02 0.00 73 1008.1
20260506101537 41 290 0.0 0.0 0.00 0.02 0.00 72 1008.1
20260506100029 42 290 0.0 0.0 0.00 0.02 0.00 69 1007.8
20260506094520 43 290 0.0 0.0 0.00 0.02 0.00 67 1007.5
20260506093019 43 290 0.0 0.0 0.00 0.02 0.00 66 1007.3
20260506091518 43 290 0.0 0.0 0.00 0.02 0.00 66 1007.0
20260506090015 44 290 0.0 0.0 0.00 0.02 0.00 66 1007.1
20260506084514 44 297 0.0 0.0 0.00 0.02 0.00 66 1007.1
20260506083012 44 297 0.0 0.0 0.00 0.02 0.00 63 1007.2
20260506081510 44 297 0.0 0.0 0.00 0.02 0.00 65 1007.2
20260506073006 45 308 0.0 0.0 0.00 0.02 0.00 61 1007.3
20260506071503 46 308 0.0 0.0 0.00 0.02 0.00 62 1007.2
20260506061606 47 305 0.0 0.0 0.00 0.02 0.00 60 1007.1